EW7890 Hamilton BM current weather conditions

sailwx.info

Wind from 114

Air temperature 13.9° C
Dewpoint 11.8° C

Last reported at 2020-Jan-26 09:01 UTC.
Time now 2020-Jan-26 09:17 UTC

Location: N 32°18' W 064°46'.
View on Google Maps.

See reports from other nearby stations

  
Tides and Currents Weather Stations Pressure Air Temp Water Temp Dewpoint Dewpoint Depression Visibility Wind Speed Wind Dir Waves Ship Positions
date/time (UTC)wind fromknots sea level pressurealtimeterstation pressurevisibilityair tempwater tempwave heightnotes
2020-Jan-26 09:01 114 13.9
2020-Jan-26 08:45 114 13.9
2020-Jan-26 08:30 114 14.4
2020-Jan-26 08:15 114 14.4
2020-Jan-26 08:01 114 15.0
2020-Jan-26 07:45 114 15.0
2020-Jan-26 07:30 114 15.0
2020-Jan-26 07:15 114 15.0
2020-Jan-26 07:00 114 15.0
2020-Jan-26 06:45 114 15.6
2020-Jan-26 06:30 114 15.6
2020-Jan-26 06:15 114 15.0
2020-Jan-26 06:00 114 15.6
2020-Jan-26 05:45 114 15.6
2020-Jan-26 05:30 114 16.1
2020-Jan-26 05:15 114 16.1
2020-Jan-26 05:00 114 16.1
2020-Jan-26 04:49 114 16.7
2020-Jan-26 04:32 114 16.7
2020-Jan-26 04:17 114 16.7
2020-Jan-26 04:02 114 17.2
2020-Jan-26 03:46 114 17.2
2020-Jan-26 03:32 125 16.7
2020-Jan-26 03:17 063 16.1
2020-Jan-26 03:02 063 16.7
2020-Jan-26 02:46 063 16.7
2020-Jan-26 02:31 063 16.7
2020-Jan-26 02:16 063 16.7
2020-Jan-26 02:01 063 17.2
2020-Jan-26 01:47 063 17.2
2020-Jan-26 01:31 063 17.2
2020-Jan-26 01:17 064 17.2
2020-Jan-26 01:02 065 16.7
2020-Jan-26 00:47 065 16.7
2020-Jan-26 00:32 064 17.2
2020-Jan-26 00:16 065 17.2
2020-Jan-26 00:02 064 17.8
2020-Jan-25 23:46 065 17.8
2020-Jan-25 23:32 143 17.8
2020-Jan-25 23:15 143 17.8
2020-Jan-25 23:01 144 17.8
2020-Jan-25 22:45 145 17.8
2020-Jan-25 22:31 145 18.3
2020-Jan-25 22:17 145 18.3
2020-Jan-25 22:01 145 18.9
2020-Jan-25 21:47 145 18.9
2020-Jan-25 21:31 006 19.4
2020-Jan-25 21:16 096 20.0
2020-Jan-25 21:01 006 20.0
2020-Jan-25 20:46 023 20.0
2020-Jan-25 20:31 060 20.6
2020-Jan-25 20:16 355 20.6
2020-Jan-25 20:02 335 20.6
2020-Jan-25 19:46 079 20.6
2020-Jan-25 19:32 352 0 gusting 4 21.1
2020-Jan-25 19:16 013 21.1
2020-Jan-25 19:02 326 21.1
2020-Jan-25 18:45 316 21.1
2020-Jan-25 18:31 003 0 gusting 3 21.1
2020-Jan-25 18:16 324 20.6
2020-Jan-25 18:01 281 21.1
2020-Jan-25 17:46 016 0 gusting 5 20.6
2020-Jan-25 17:31 325 21.1
2020-Jan-25 17:16 356 21.7
2020-Jan-25 17:00 109 0 gusting 5 21.7
2020-Jan-25 16:46 203 21.7
2020-Jan-25 16:30 032 0 gusting 4 21.7
2020-Jan-25 16:16 101 0 gusting 3 21.7
2020-Jan-25 16:00 127 1 gusting 7 21.7
2020-Jan-25 15:45 132 0 gusting 8 21.1
2020-Jan-25 15:30 119 0 gusting 6 21.1
2020-Jan-25 15:15 075 1 gusting 6 21.1
2020-Jan-25 15:00 233 0 gusting 5 21.1
2020-Jan-25 14:45 128 0 gusting 5 20.6
2020-Jan-25 14:30 315 0 gusting 5 20.6
2020-Jan-25 14:15 083 0 gusting 5 20.6
2020-Jan-25 14:00 099 0 gusting 6 20.6
2020-Jan-25 13:45 246 0 gusting 6 20.0
2020-Jan-25 13:30 119 20.0
2020-Jan-25 13:15 221 20.0
2020-Jan-25 13:00 323 19.4
2020-Jan-25 12:45 128 18.9
2020-Jan-25 12:30 037 18.9
2020-Jan-25 12:16 151 18.3
2020-Jan-25 12:00 095 18.3
2020-Jan-25 11:45 351 18.3
2020-Jan-25 11:30 353 18.3
2020-Jan-25 10:47 331 18.3
2020-Jan-25 10:32 332 18.3
2020-Jan-25 10:18 323 18.3
2020-Jan-25 10:01 297 18.3
2020-Jan-25 09:47 096 18.3
2020-Jan-25 09:33 005 17.8
2020-Jan-25 09:16 013 18.3
2020-Jan-25 09:02 013 18.3
2020-Jan-25 08:47 079 18.3
2020-Jan-25 08:31 185 18.3
2020-Jan-25 08:17 021 18.3
2020-Jan-25 08:01 110 18.3
2020-Jan-25 07:48 058 18.3
2020-Jan-25 07:33 302 18.3
2020-Jan-25 07:17 016 18.3
2020-Jan-25 07:03 191 18.3
2020-Jan-25 06:47 258 18.3
2020-Jan-25 06:32 044 18.3
2020-Jan-25 06:16 325 18.3
2020-Jan-25 06:02 063 18.3
2020-Jan-25 05:47 034 18.3
2020-Jan-25 05:32 127 18.3
2020-Jan-25 05:16 089 18.3
2020-Jan-25 05:01 028 18.9
2020-Jan-25 04:47 308 0 gusting 6 18.9
2020-Jan-25 04:32 333 18.9
2020-Jan-25 04:16 018 18.9
2020-Jan-25 04:01 337 18.9
2020-Jan-25 03:46 007 18.9
2020-Jan-25 03:31 049 18.9
2020-Jan-25 03:17 004 18.3
2020-Jan-25 03:01 028 18.3
2020-Jan-25 02:46 318 18.3
2020-Jan-25 02:31 116 0 gusting 5 18.3
2020-Jan-25 02:16 326 18.9
2020-Jan-25 02:01 058 18.9
2020-Jan-25 01:47 316 18.9
2020-Jan-25 01:31 303 18.9
2020-Jan-25 01:16 098 18.9
2020-Jan-25 01:01 191 18.9
2020-Jan-25 00:46 118 18.9
2020-Jan-25 00:32 042 19.4
2020-Jan-25 00:15 155 0 gusting 6 19.4
2020-Jan-25 00:01 056 19.4
2020-Jan-24 23:45 176 19.4
2020-Jan-24 23:30 063 0 gusting 6 19.4
2020-Jan-24 23:16 040 1 gusting 8 19.4
2020-Jan-24 23:01 360 1 gusting 6 19.4
2020-Jan-24 22:45 296 1 gusting 7 19.4
2020-Jan-24 22:31 321 19.4
2020-Jan-24 22:16 323 1 gusting 7 19.4
2020-Jan-24 22:01 109 1 gusting 9 19.4
2020-Jan-24 21:46 059 1 gusting 7 19.4
2020-Jan-24 21:31 046 1 gusting 7 19.4
2020-Jan-24 21:16 360 0 gusting 6 19.4
2020-Jan-24 21:01 179 1 gusting 8 19.4
2020-Jan-24 20:46 289 1 gusting 7 20.0
2020-Jan-24 20:30 315 1 gusting 6 20.0
2020-Jan-24 20:16 236 0 gusting 8 20.0
2020-Jan-24 20:01 314 1 gusting 10 20.0
2020-Jan-24 19:46 013 2 gusting 7 20.6
2020-Jan-24 19:31 135 1 gusting 5 20.6
2020-Jan-24 19:16 020 1 gusting 6 20.6
2020-Jan-24 19:01 358 0 gusting 6 20.6
2020-Jan-24 18:46 340 1 gusting 6 20.6
2020-Jan-24 18:31 028 1 gusting 7 20.6
2020-Jan-24 18:16 326 1 gusting 6 20.6
2020-Jan-24 18:00 240 1 gusting 8 20.6
2020-Jan-24 17:46 054 2 gusting 9 20.6
2020-Jan-24 17:30 027 2 gusting 9 20.6
2020-Jan-24 17:15 107 1 gusting 6 20.6
2020-Jan-24 17:01 006 20.6
2020-Jan-24 16:45 072 1 gusting 6 20.6
2020-Jan-24 16:31 044 0 gusting 6 20.6
2020-Jan-24 16:15 056 0 gusting 6 20.0
2020-Jan-24 16:00 300 1 gusting 10 20.0
2020-Jan-24 15:45 032 0 gusting 6 20.0
2020-Jan-24 15:30 356 1 gusting 7 20.0
2020-Jan-24 15:15 280 1 gusting 9 19.4
2020-Jan-24 15:00 056 1 gusting 5 19.4
2020-Jan-24 14:45 068 1 gusting 7 19.4
2020-Jan-24 14:30 286 0 gusting 6 19.4
2020-Jan-24 14:15 053 1 gusting 6 18.9
2020-Jan-24 14:00 326 1 gusting 7 18.9
2020-Jan-24 13:48 030 0 gusting 7 18.3
2020-Jan-24 13:32 323 3 gusting 9 18.3
2020-Jan-24 13:19 301 1 gusting 10 18.3
2020-Jan-24 13:03 255 1 gusting 6 17.8
2020-Jan-24 12:46 157 1 gusting 10 17.8
2020-Jan-24 12:31 351 2 gusting 8 17.8
2020-Jan-24 12:17 347 0 gusting 8 17.2
2020-Jan-24 12:01 072 0 gusting 6 17.2
2020-Jan-24 11:47 315 1 gusting 7 17.2
2020-Jan-24 11:31 002 1 gusting 6 17.2
2020-Jan-24 11:17 338 3 gusting 12 17.2
2020-Jan-24 11:01 281 3 gusting 7 17.2
2020-Jan-24 10:45 101 1 gusting 8 16.7
2020-Jan-24 10:32 338 2 gusting 11 16.7
2020-Jan-24 10:16 046 1 gusting 11 17.2
2020-Jan-24 10:02 130 1 gusting 10 17.2
2020-Jan-24 09:46 211 2 gusting 11 16.7
2020-Jan-24 09:31 038 2 gusting 10 16.7
2020-Jan-24 09:16 084 0 gusting 11 16.7
2020-Jan-24 09:01 047 2 gusting 10 16.7